Sparta, IL

1:53 AM CDT on October 22, 2019 (GMT -0500)
Sparta Community-Hunter

Weather History for KSAR - August, 2019

Change the Weather History Date:

Friday, August 30, 2019

  Actual Average (WUND) Record (WUND)
Temperature  
Mean Temperature 76 °F -  
Max Temperature 85 °F - - (-1)
Min Temperature 68 °F - - (-1)
Cooling Degree Days 12    
Growing Degree Days 26 (Base 50)    
Moisture  
Dew Point 68 °F    
Average Humidity 79    
Maximum Humidity 99    
Minimum Humidity 65    
Precipitation  
Precipitation 0.00 in - - ()
Sea Level Pressure  
Sea Level Pressure 30.07 in    
Wind  
Wind Speed 5 mph (South)    
Max Wind Speed 12 mph    
Max Gust Speed 17 mph    
Visibility 10 miles    
Events Rain , Thunderstorm    
Averages and records for this station are not official NWS values.
T = Trace of Precipitation, MM = Missing Value Source: NWS Daily Summary

Daily Weather History Graph

Daily Weather History Graph

Search for Another Location

Airport or City:

Astronomy

Aug. 30, 2019 Rise Set
Actual Time 6:26 AM CDT 7:31 PM CDT
Civil Twilight 5:59 AM CDT 7:58 PM CDT
Nautical Twilight 5:27 AM CDT 8:30 PM CDT
Astronomical Twilight 4:53 AM CDT 9:04 PM CDT
Moon 6:28 AM CDT (8/30) 8:08 PM CDT (8/30)
Length of Visible Light 13h 59m
Length of Day
13h 05m
New Moon, 0% of the Moon is Illuminated
Aug 30
New Moon
Sep 5
First Quarter
Sep 13
Full
Sep 21
Last Quarter
Sep 28
New

Hourly Weather History & Observations

Time (CDT) Temp. Heat Index Dew Point Humidity Pressure Visibility Wind Dir Wind Speed Gust Speed Precip Events Conditions
12:15 AM 72.0 °F - 63.9 °F 76% 30.04 in 10.0 mi South 6.9 mph - N/A   Clear
12:35 AM 71.6 °F - 63.7 °F 76% 30.04 in 10.0 mi SSW 9.2 mph - N/A   Clear
12:55 AM 71.2 °F - 63.7 °F 77% 30.05 in 10.0 mi SSW 5.8 mph - N/A   Clear
1:15 AM 71.1 °F - 63.7 °F 77% 30.04 in 10.0 mi South 5.8 mph - N/A   Clear
1:35 AM 70.9 °F - 63.7 °F 78% 30.04 in 10.0 mi SSW 6.9 mph - N/A   Clear
1:55 AM 70.9 °F - 63.5 °F 77% 30.04 in 10.0 mi SSW 4.6 mph - N/A   Clear
2:15 AM 70.5 °F - 63.7 °F 79% 30.04 in 10.0 mi SW 5.8 mph - N/A   Scattered Clouds
2:35 AM 69.8 °F - 63.7 °F 81% 30.03 in 10.0 mi SW 3.5 mph - N/A   Scattered Clouds
2:55 AM 70.0 °F - 63.5 °F 80% 30.03 in 10.0 mi SSW 3.5 mph - N/A   Scattered Clouds
3:15 AM 70.5 °F - 63.5 °F 78% 30.03 in 10.0 mi SW 3.5 mph - N/A   Scattered Clouds
3:35 AM 69.8 °F - 63.5 °F 80% 30.03 in 10.0 mi Calm Calm - N/A   Clear
3:55 AM 69.4 °F - 63.5 °F 81% 30.04 in 10.0 mi Calm Calm - N/A   Clear
4:15 AM 69.1 °F - 63.7 °F 83% 30.05 in 10.0 mi Calm Calm - N/A   Clear
4:35 AM 68.0 °F - 64.2 °F 88% 30.06 in 10.0 mi Calm Calm - N/A   Clear
4:55 AM 68.9 °F - 63.5 °F 83% 30.06 in 10.0 mi Calm Calm - N/A   Clear
5:15 AM 68.9 °F - 63.7 °F 83% 30.06 in 10.0 mi SSW 3.5 mph - N/A   Scattered Clouds
5:35 AM 69.4 °F - 63.7 °F 82% 30.05 in 10.0 mi SSW 6.9 mph - N/A   Clear
5:55 AM 71.1 °F - 63.5 °F 77% 30.06 in 10.0 mi SW 6.9 mph - N/A   Clear
6:15 AM 70.9 °F - 63.5 °F 77% 30.06 in 10.0 mi SSW 6.9 mph - N/A   Mostly Cloudy
6:35 AM 70.7 °F - 63.7 °F 78% 30.07 in 10.0 mi SSW 8.1 mph - N/A   Scattered Clouds
6:55 AM 70.2 °F - 63.9 °F 80% 30.07 in 10.0 mi SSW 4.6 mph - N/A   Mostly Cloudy
7:15 AM 70.3 °F - 64.2 °F 81% 30.07 in 10.0 mi SSW 4.6 mph - N/A   Scattered Clouds
7:35 AM 71.4 °F - 64.6 °F 79% 30.08 in 10.0 mi SSW 4.6 mph - N/A   Scattered Clouds
7:55 AM 71.6 °F - 64.9 °F 79% 30.08 in 10.0 mi South 6.9 mph - N/A   Mostly Cloudy
8:15 AM 71.6 °F - 65.7 °F 81% 30.09 in 10.0 mi Calm Calm - N/A   Overcast
8:35 AM 72.5 °F - 65.7 °F 79% 30.09 in 10.0 mi WSW 3.5 mph - N/A   Mostly Cloudy
8:55 AM 72.7 °F - 65.7 °F 79% 30.09 in 10.0 mi SW 4.6 mph - N/A   Scattered Clouds
9:15 AM 72.9 °F - 66.2 °F 80% 30.09 in 10.0 mi WSW 4.6 mph - N/A   Clear
9:35 AM 74.5 °F - 67.3 °F 78% 30.08 in 10.0 mi SSW 4.6 mph - N/A   Clear
9:55 AM 74.8 °F - 67.1 °F 77% 30.08 in 10.0 mi SW 4.6 mph - N/A   Clear
10:15 AM 75.4 °F - 67.1 °F 75% 30.08 in 10.0 mi SW 4.6 mph - N/A   Clear
10:35 AM 76.1 °F - 67.8 °F 75% 30.09 in 10.0 mi SSW 5.8 mph - N/A   Clear
10:55 AM 77.2 °F - 68.0 °F 73% 30.09 in 10.0 mi WSW 4.6 mph - N/A   Clear
11:15 AM 78.4 °F - 68.7 °F 72% 30.09 in 10.0 mi SW 4.6 mph - N/A   Clear
11:35 AM 78.6 °F - 69.4 °F 73% 30.10 in 10.0 mi WSW 4.6 mph - N/A   Mostly Cloudy
11:55 AM 79.7 °F - 69.4 °F 71% 30.09 in 10.0 mi Calm Calm - N/A   Mostly Cloudy
12:15 PM 80.2 °F 83.3 °F 69.8 °F 70% 30.09 in 10.0 mi Calm Calm - N/A   Scattered Clouds
12:35 PM 81.9 °F 86.2 °F 71.1 °F 70% 30.09 in 10.0 mi Calm Calm - N/A   Clear
12:55 PM 83.1 °F 88.4 °F 72.0 °F 69% 30.08 in 10.0 mi ENE 3.5 mph - N/A   Clear
1:15 PM 84.2 °F 90.3 °F 72.7 °F 68% 30.07 in 10.0 mi ENE 3.5 mph - N/A   Clear
1:35 PM 84.2 °F 89.9 °F 72.3 °F 67% 30.07 in 10.0 mi ENE 3.5 mph - N/A   Clear
2:00 PM 84.2 °F 90.6 °F 72.9 °F 69% 30.06 in 10.0 mi East 3.5 mph - N/A   Clear
2:15 PM 84.6 °F 91.0 °F 72.9 °F 68% 30.05 in 10.0 mi East 8.1 mph - N/A   Scattered Clouds
2:35 PM 84.0 °F 89.6 °F 72.1 °F 67% 30.05 in 10.0 mi Calm Calm - N/A   Clear
2:55 PM 84.4 °F 92.0 °F 74.5 °F 72% 30.04 in 10.0 mi NNE 4.6 mph - N/A   Mostly Cloudy
3:15 PM 85.1 °F 91.8 °F 72.9 °F 67% 30.03 in 10.0 mi ESE 8.1 mph - N/A   Mostly Cloudy
3:35 PM 85.1 °F 91.5 °F 72.5 °F 66% 30.02 in 10.0 mi SSE 8.1 mph - N/A   Clear
3:55 PM 84.2 °F 89.3 °F 71.2 °F 65% 30.03 in 10.0 mi SSE 9.2 mph - N/A   Clear
4:15 PM 83.8 °F 88.9 °F 71.6 °F 66% 30.03 in 10.0 mi SSE 5.8 mph - N/A   Clear
4:35 PM 83.3 °F 87.9 °F 70.7 °F 66% 30.04 in 10.0 mi SSE 6.9 mph - N/A   Scattered Clouds
4:55 PM 82.8 °F 86.9 °F 70.5 °F 66% 30.05 in 10.0 mi SSE 4.6 mph - N/A   Mostly Cloudy
5:15 PM 81.7 °F 85.1 °F 69.3 °F 66% 30.05 in 10.0 mi SSE 3.5 mph - N/A   Overcast
5:35 PM 81.3 °F 84.3 °F 68.5 °F 65% 30.05 in 10.0 mi SE 3.5 mph - N/A   Overcast
5:55 PM 79.3 °F - 69.8 °F 72% 30.05 in 10.0 mi Calm Calm - N/A   Overcast
6:15 PM 79.2 °F - 69.4 °F 72% 30.05 in 10.0 mi Calm Calm - N/A Thunderstorm Overcast
6:35 PM 78.8 °F - 68.9 °F 72% 30.05 in 10.0 mi Calm Calm - N/A   Overcast
6:55 PM 77.5 °F - 70.7 °F 79% 30.06 in 10.0 mi Calm Calm - N/A Thunderstorm Overcast
7:15 PM 75.9 °F - 71.6 °F 86% 30.06 in 10.0 mi Calm Calm - N/A   Overcast
7:35 PM 75.6 °F - 70.5 °F 84% 30.07 in 10.0 mi NNE 4.6 mph - N/A   Overcast
7:55 PM 76.1 °F - 72.5 °F 89% 30.07 in 10.0 mi NNE 4.6 mph - N/A   Overcast
8:15 PM 75.9 °F - 73.0 °F 91% 30.07 in 10.0 mi NE 6.9 mph - N/A   Overcast
8:35 PM 76.1 °F - 73.4 °F 91% 30.08 in 10.0 mi ENE 5.8 mph - N/A   Overcast
8:55 PM 75.4 °F - 73.8 °F 95% 30.08 in 10.0 mi ENE 5.8 mph - N/A   Light Drizzle
9:15 PM 75.4 °F - 73.6 °F 94% 30.10 in 10.0 mi NE 8.1 mph - N/A   Overcast
9:35 PM 74.7 °F - 73.6 °F 96% 30.11 in 10.0 mi North 10.4 mph - N/A   Overcast
9:55 PM 72.9 °F - 72.1 °F 98% 30.13 in 10.0 mi North 9.2 mph - N/A   Overcast
10:15 PM 70.3 °F - 69.4 °F 97% 30.13 in 10.0 mi North 9.2 mph 17.3 mph N/A   Overcast
10:35 PM 69.8 °F - 68.9 °F 97% 30.13 in 10.0 mi NNE 11.5 mph - N/A   Overcast
10:55 PM 69.3 °F - 68.9 °F 99% 30.13 in 10.0 mi NNE 8.1 mph 16.1 mph N/A   Mostly Cloudy
11:15 PM 68.9 °F - 68.4 °F 98% 30.13 in 10.0 mi NE 9.2 mph - N/A   Scattered Clouds
11:35 PM 68.9 °F - 68.2 °F 98% 30.13 in 10.0 mi NE 9.2 mph - N/A Rain Light Rain
11:55 PM 68.9 °F - 68.2 °F 98% 30.14 in 10.0 mi North 5.8 mph - N/A Rain Rain